RAJ406 WARR-WIII

Flight info

Callsign RAJ406
Flight time 1h 10m
Altitude 36000
Route LASEM CUCUT W16 IMU
Aircraft A400/M-SDFGHIRWY/EB2

Departure

Time 2026-05-07 00:49
Airport Juanda International Airport (WARR)

Arrival

Time 2026-05-07 01:59
Airport Soekarno-Hatta International Airport (WIII)
Time Latitude Longitude Altitude Speed Heading
2026-05-07 00:16 -7.38334 112.77818 29 ft 0 kts 190°
2026-05-07 00:24 -7.38332 112.77819 29 ft 3 kts 190°
2026-05-07 00:24 -7.38313 112.77822 29 ft 3 kts 190°
2026-05-07 00:24 -7.38295 112.77825 29 ft 3 kts 190°
2026-05-07 00:24 -7.38277 112.77828 29 ft 3 kts 190°
2026-05-07 00:25 -7.38260 112.77831 29 ft 3 kts 190°
2026-05-07 00:25 -7.38250 112.77833 29 ft 0 kts 190°
2026-05-07 00:27 -7.38254 112.77832 29 ft 3 kts 195°
2026-05-07 00:27 -7.38252 112.77819 29 ft 2 kts 297°
2026-05-07 00:27 -7.38239 112.77787 29 ft 8 kts 287°
2026-05-07 00:27 -7.38222 112.77735 29 ft 8 kts 296°
2026-05-07 00:28 -7.38189 112.77687 29 ft 9 kts 307°
2026-05-07 00:28 -7.38176 112.77649 29 ft 5 kts 275°
2026-05-07 00:28 -7.38163 112.77606 29 ft 10 kts 305°
2026-05-07 00:28 -7.38077 112.77595 29 ft 17 kts
2026-05-07 00:29 -7.37988 112.77525 29 ft 21 kts 279°
2026-05-07 00:29 -7.37963 112.77368 29 ft 25 kts 278°
2026-05-07 00:30 -7.37772 112.77409 29 ft 5 kts 111°
2026-05-07 00:30 -7.37805 112.77535 29 ft 53 kts 100°
2026-05-07 00:30 -7.37908 112.78180 28 ft 134 kts 99°
2026-05-07 00:30 -7.38026 112.78876 29 ft 154 kts 98°
2026-05-07 00:31 -7.38064 112.79076 29 ft 150 kts 102°
2026-05-07 00:31 -7.38113 112.79276 29 ft 145 kts 105°
2026-05-07 00:31 -7.38491 112.80059 27 ft 102 kts 112°
2026-05-07 00:32 -7.38500 112.80081 30 ft 0 kts 91°
2026-05-07 00:33 -7.38334 112.77818 30 ft 0 kts 190°
2026-05-07 00:42 -7.38332 112.77818 29 ft 3 kts 190°
2026-05-07 00:43 -7.38314 112.77822 5 ft 3 kts 190°
2026-05-07 00:43 -7.38296 112.77825 34 ft 3 kts 190°
2026-05-07 00:43 -7.38278 112.77828 29 ft 3 kts 190°
2026-05-07 00:43 -7.38261 112.77831 29 ft 2 kts 190°
2026-05-07 00:44 -7.38249 112.77833 29 ft 0 kts 190°
2026-05-07 00:45 -7.38254 112.77830 29 ft 2 kts 212°
2026-05-07 00:45 -7.38248 112.77811 29 ft 5 kts 294°
2026-05-07 00:45 -7.38228 112.77752 29 ft 12 kts 284°
2026-05-07 00:46 -7.38176 112.77670 29 ft 16 kts 307°
2026-05-07 00:46 -7.38141 112.77593 29 ft 12 kts 325°
2026-05-07 00:46 -7.38046 112.77599 29 ft 16 kts
2026-05-07 00:46 -7.37993 112.77555 29 ft 17 kts 284°
2026-05-07 00:47 -7.37963 112.77376 29 ft 22 kts 279°
2026-05-07 00:47 -7.37923 112.77288 29 ft 20 kts 333°
2026-05-07 00:47 -7.37773 112.77380 29 ft 19 kts 65°
2026-05-07 00:47 -7.37773 112.77426 29 ft 1 kts 97°
2026-05-07 00:48 -7.37774 112.77437 29 ft 3 kts 97°
2026-05-07 00:48 -7.37777 112.77463 29 ft 5 kts 97°
2026-05-07 00:48 -7.37790 112.77561 29 ft 44 kts 99°
2026-05-07 00:48 -7.37894 112.78160 28 ft 128 kts 99°
2026-05-07 00:49 -7.38084 112.79239 62 ft 181 kts 99°
2026-05-07 00:49 -7.38298 112.80541 575 ft 193 kts 98°
2026-05-07 00:49 -7.38485 112.81912 1178 ft 201 kts 97°
2026-05-07 00:49 -7.38627 112.83338 1832 ft 211 kts 95°
2026-05-07 00:50 -7.38735 112.84859 2500 ft 225 kts 98°
2026-05-07 00:50 -7.39039 112.86477 2875 ft 249 kts 102°
2026-05-07 00:50 -7.39304 112.88272 3176 ft 270 kts 87°
2026-05-07 00:50 -7.38656 112.90068 3544 ft 286 kts 54°
2026-05-07 00:51 -7.37026 112.91287 4057 ft 297 kts 22°
2026-05-07 00:51 -7.34983 112.91477 4618 ft 306 kts 355°
2026-05-07 00:51 -7.32918 112.91059 5143 ft 309 kts 349°
2026-05-07 00:51 -7.30793 112.90563 5699 ft 311 kts 350°
2026-05-07 00:52 -7.28629 112.90104 6263 ft 313 kts 351°
2026-05-07 00:52 -7.26508 112.89697 6783 ft 315 kts 352°
2026-05-07 00:52 -7.24344 112.89311 7312 ft 316 kts 352°
2026-05-07 00:52 -7.22168 112.88938 7846 ft 318 kts 353°
2026-05-07 00:53 -7.19980 112.88573 8380 ft 319 kts 353°
2026-05-07 00:53 -7.17768 112.88210 8898 ft 321 kts 353°
2026-05-07 00:53 -7.15591 112.87808 9444 ft 324 kts 347°
2026-05-07 00:53 -7.13573 112.86789 9931 ft 331 kts 321°
2026-05-07 00:54 -7.12188 112.84911 10392 ft 339 kts 294°
2026-05-07 00:54 -7.11601 112.82621 10852 ft 342 kts 281°
2026-05-07 00:54 -7.11245 112.80226 11335 ft 344 kts 279°
2026-05-07 00:54 -7.10896 112.77825 11815 ft 346 kts 279°
2026-05-07 00:55 -7.10524 112.75448 12299 ft 347 kts 279°
2026-05-07 00:55 -7.10124 112.73039 12769 ft 349 kts 280°
2026-05-07 00:55 -7.09707 112.70610 13227 ft 352 kts 280°
2026-05-07 00:55 -7.09285 112.68198 13689 ft 354 kts 279°
2026-05-07 00:56 -7.08856 112.65777 14108 ft 356 kts 280°
2026-05-07 00:56 -7.08418 112.63316 14503 ft 358 kts 279°
2026-05-07 00:56 -7.07980 112.60862 14902 ft 360 kts 280°
2026-05-07 00:56 -7.07533 112.58365 15304 ft 362 kts 280°
2026-05-07 00:57 -7.07081 112.55846 15712 ft 364 kts 280°
2026-05-07 00:57 -7.06627 112.53320 16125 ft 366 kts 280°
2026-05-07 00:57 -7.06177 112.50818 16528 ft 368 kts 280°
2026-05-07 00:57 -7.05719 112.48271 16938 ft 370 kts 280°
2026-05-07 00:58 -7.05256 112.45700 17347 ft 372 kts 280°
2026-05-07 00:58 -7.04793 112.43128 17754 ft 374 kts 280°
2026-05-07 00:58 -7.04332 112.40566 18161 ft 376 kts 280°
2026-05-07 00:58 -7.03861 112.37956 18507 ft 379 kts 280°
2026-05-07 00:59 -7.02920 112.32731 19164 ft 383 kts 279°
2026-05-07 00:59 -7.02400 112.30086 19490 ft 385 kts 284°
2026-05-07 00:59 -7.01555 112.27500 19813 ft 388 kts 290°
2026-05-07 01:00 -7.00584 112.24992 20138 ft 390 kts 291°
2026-05-07 01:00 -6.99570 112.22450 20445 ft 392 kts 291°
2026-05-07 01:00 -6.98548 112.19892 20757 ft 394 kts 291°
2026-05-07 01:00 -6.97521 112.17314 21063 ft 396 kts 291°
2026-05-07 01:01 -6.96478 112.14769 21349 ft 398 kts 294°
2026-05-07 01:01 -6.95125 112.12320 21649 ft 401 kts 301°
2026-05-07 01:01 -6.93609 112.09951 21928 ft 403 kts 302°
2026-05-07 01:01 -6.92051 112.07583 22190 ft 405 kts 303°
2026-05-07 01:02 -6.90488 112.05210 22445 ft 407 kts 303°
2026-05-07 01:02 -6.88942 112.02857 22695 ft 408 kts 303°
2026-05-07 01:02 -6.87369 112.00460 22906 ft 410 kts 303°
2026-05-07 01:02 -6.85793 111.98056 23145 ft 412 kts 303°
2026-05-07 01:03 -6.84211 111.95643 23368 ft 413 kts 303°
2026-05-07 01:03 -6.82624 111.93221 23567 ft 415 kts 303°
2026-05-07 01:03 -6.81033 111.90791 23744 ft 416 kts 303°
2026-05-07 01:03 -6.79453 111.88379 23898 ft 417 kts 303°
2026-05-07 01:04 -6.77852 111.85936 24062 ft 418 kts 303°
2026-05-07 01:04 -6.76243 111.83479 24208 ft 419 kts 302°
2026-05-07 01:04 -6.74635 111.81025 24368 ft 420 kts 302°
2026-05-07 01:04 -6.73042 111.78594 24499 ft 421 kts 302°
2026-05-07 01:05 -6.71425 111.76127 24650 ft 422 kts 303°
2026-05-07 01:05 -6.69806 111.73657 24781 ft 423 kts 302°
2026-05-07 01:05 -6.68178 111.71174 24916 ft 423 kts 303°
2026-05-07 01:05 -6.66573 111.68726 25034 ft 424 kts 303°
2026-05-07 01:06 -6.64946 111.66245 25162 ft 425 kts 302°
2026-05-07 01:06 -6.63313 111.63756 25287 ft 426 kts 303°
2026-05-07 01:06 -6.61679 111.61255 25391 ft 426 kts 302°
2026-05-07 01:06 -6.60074 111.58738 25508 ft 427 kts 301°
2026-05-07 01:07 -6.58478 111.56197 25605 ft 428 kts 301°
2026-05-07 01:07 -6.56918 111.53697 25699 ft 429 kts 301°
2026-05-07 01:07 -6.55334 111.51154 25804 ft 429 kts 301°
2026-05-07 01:07 -6.53743 111.48605 25904 ft 430 kts 301°
2026-05-07 01:08 -6.52149 111.46055 25990 ft 430 kts 301°
2026-05-07 01:08 -6.50546 111.43495 26078 ft 431 kts 301°
2026-05-07 01:08 -6.48945 111.40943 26154 ft 432 kts 301°
2026-05-07 01:08 -6.47335 111.38378 26239 ft 432 kts 301°
2026-05-07 01:09 -6.45745 111.35845 26314 ft 433 kts 301°
2026-05-07 01:09 -6.44137 111.33286 26401 ft 433 kts 301°
2026-05-07 01:09 -6.42522 111.30714 26479 ft 434 kts 301°
2026-05-07 01:09 -6.40904 111.28139 26546 ft 434 kts 301°
2026-05-07 01:10 -6.39286 111.25563 26627 ft 435 kts 301°
2026-05-07 01:10 -6.37690 111.23022 26678 ft 436 kts 301°
2026-05-07 01:10 -6.36067 111.20440 26744 ft 436 kts 301°
2026-05-07 01:10 -6.34447 111.17861 26809 ft 436 kts 301°
2026-05-07 01:11 -6.32825 111.15282 26860 ft 437 kts 301°
2026-05-07 01:11 -6.31303 111.12632 26910 ft 437 kts 295°
2026-05-07 01:11 -6.30209 111.09784 26964 ft 436 kts 284°
2026-05-07 01:11 -6.29668 111.06790 27024 ft 435 kts 274°
2026-05-07 01:12 -6.29483 111.03750 27082 ft 435 kts 271°
2026-05-07 01:12 -6.29434 111.00702 27132 ft 435 kts 269°
2026-05-07 01:12 -6.29455 110.97697 27186 ft 435 kts 268°
2026-05-07 01:12 -6.29504 110.94638 27236 ft 436 kts 268°
2026-05-07 01:13 -6.29555 110.91588 27279 ft 436 kts 268°
2026-05-07 01:13 -6.29597 110.88538 27324 ft 436 kts 268°
2026-05-07 01:13 -6.29629 110.85517 27367 ft 437 kts 268°
2026-05-07 01:13 -6.29652 110.82456 27413 ft 437 kts 269°
2026-05-07 01:14 -6.29669 110.79386 27453 ft 437 kts 269°
2026-05-07 01:14 -6.29684 110.76358 27492 ft 438 kts 269°
2026-05-07 01:14 -6.29697 110.73309 27617 ft 435 kts 269°
2026-05-07 01:14 -6.29708 110.70298 27998 ft 427 kts 269°
2026-05-07 01:15 -6.29720 110.67326 28381 ft 420 kts 269°
2026-05-07 01:15 -6.29732 110.64402 28786 ft 414 kts 269°
2026-05-07 01:15 -6.29744 110.61524 29193 ft 408 kts 269°
2026-05-07 01:15 -6.29755 110.58714 29600 ft 403 kts 269°
2026-05-07 01:16 -6.29767 110.55892 30009 ft 399 kts 269°
2026-05-07 01:16 -6.29779 110.53117 30362 ft 394 kts 268°
2026-05-07 01:16 -6.29790 110.50405 30714 ft 390 kts 269°
2026-05-07 01:16 -6.29802 110.47683 31079 ft 387 kts 269°
2026-05-07 01:17 -6.29813 110.44981 31442 ft 383 kts 269°
2026-05-07 01:17 -6.29823 110.42337 31809 ft 380 kts 269°
2026-05-07 01:17 -6.29834 110.39680 32181 ft 377 kts 269°
2026-05-07 01:17 -6.29844 110.37057 32566 ft 374 kts 269°
2026-05-07 01:18 -6.29853 110.34442 32954 ft 372 kts 269°
2026-05-07 01:18 -6.29861 110.31853 33346 ft 369 kts 269°
2026-05-07 01:18 -6.29869 110.29282 33735 ft 366 kts 269°
2026-05-07 01:18 -6.29877 110.26712 33888 ft 371 kts 269°
2026-05-07 01:19 -6.29885 110.24093 33898 ft 375 kts 269°
2026-05-07 01:19 -6.29901 110.18879 33895 ft 375 kts 270°
2026-05-07 01:20 -6.29917 110.13645 33892 ft 375 kts 270°
2026-05-07 01:20 -6.29932 110.08397 33899 ft 375 kts 270°
2026-05-07 01:21 -6.29946 110.03156 33897 ft 375 kts 270°
2026-05-07 01:21 -6.29960 109.97915 33895 ft 375 kts 270°
2026-05-07 01:22 -6.29974 109.92698 33897 ft 375 kts 270°
2026-05-07 01:22 -6.29987 109.87448 33895 ft 375 kts 270°
2026-05-07 01:23 -6.29999 109.82197 33894 ft 375 kts 270°
2026-05-07 01:23 -6.30011 109.76953 33894 ft 375 kts 270°
2026-05-07 01:24 -6.30022 109.71718 33897 ft 379 kts 270°
2026-05-07 01:24 -6.30033 109.66310 33905 ft 393 kts 270°
2026-05-07 01:25 -6.30044 109.60734 33906 ft 404 kts 270°
2026-05-07 01:25 -6.30055 109.55024 33900 ft 412 kts 270°
2026-05-07 01:26 -6.30066 109.49277 33896 ft 414 kts 270°
2026-05-07 01:26 -6.30075 109.43488 33896 ft 414 kts 270°
2026-05-07 01:27 -6.30084 109.37703 33900 ft 414 kts 270°
2026-05-07 01:27 -6.30094 109.31905 33900 ft 414 kts 270°
2026-05-07 01:28 -6.30116 109.26142 33902 ft 414 kts 270°
2026-05-07 01:28 -6.30140 109.20341 33904 ft 415 kts 270°
2026-05-07 01:29 -6.30164 109.14532 33854 ft 417 kts 270°
2026-05-07 01:29 -6.30175 109.11605 33598 ft 416 kts 270°
2026-05-07 01:29 -6.30186 109.08718 33335 ft 406 kts 269°
2026-05-07 01:29 -6.30197 109.05947 33077 ft 397 kts 269°
2026-05-07 01:30 -6.30207 109.03192 32823 ft 389 kts 269°
2026-05-07 01:30 -6.30217 109.00486 32571 ft 382 kts 269°
2026-05-07 01:30 -6.30227 108.97844 32318 ft 375 kts 269°
2026-05-07 01:30 -6.30236 108.95223 32071 ft 371 kts 269°
2026-05-07 01:31 -6.30245 108.92667 31835 ft 370 kts 269°
2026-05-07 01:31 -6.30255 108.90079 31597 ft 368 kts 269°
2026-05-07 01:31 -6.30264 108.87509 31361 ft 367 kts 269°
2026-05-07 01:31 -6.30273 108.84942 31130 ft 366 kts 269°
2026-05-07 01:32 -6.30278 108.83242 30974 ft 366 kts 269°
2026-05-07 01:32 -6.30290 108.79862 30680 ft 364 kts 269°
2026-05-07 01:32 -6.30298 108.77318 30452 ft 363 kts 269°
2026-05-07 01:32 -6.30307 108.74774 30219 ft 362 kts 269°
2026-05-07 01:33 -6.30315 108.72248 29995 ft 361 kts 269°
2026-05-07 01:33 -6.30320 108.70578 29821 ft 360 kts 269°
2026-05-07 01:33 -6.30328 108.68070 29560 ft 359 kts 269°
2026-05-07 01:33 -6.30336 108.65554 29293 ft 358 kts 269°
2026-05-07 01:34 -6.30344 108.63053 29037 ft 356 kts 269°
2026-05-07 01:34 -6.30351 108.60589 28781 ft 355 kts 269°
2026-05-07 01:34 -6.30358 108.58108 28528 ft 354 kts 269°
2026-05-07 01:34 -6.30365 108.55621 28279 ft 352 kts 269°
2026-05-07 01:35 -6.30372 108.53187 28139 ft 351 kts 269°
2026-05-07 01:35 -6.30379 108.50725 28019 ft 350 kts 269°
2026-05-07 01:35 -6.30388 108.47477 27855 ft 349 kts 269°
2026-05-07 01:35 -6.30393 108.45856 27773 ft 349 kts 269°
2026-05-07 01:36 -6.30399 108.43413 27657 ft 348 kts 269°
2026-05-07 01:36 -6.30406 108.40978 27526 ft 348 kts 269°
2026-05-07 01:36 -6.30395 108.38552 27394 ft 348 kts 272°
2026-05-07 01:36 -6.30122 108.36132 27152 ft 347 kts 283°
2026-05-07 01:37 -6.29399 108.33859 26916 ft 345 kts 295°
2026-05-07 01:37 -6.28206 108.31776 26677 ft 343 kts 308°
2026-05-07 01:37 -6.26662 108.29956 26445 ft 342 kts 314°
2026-05-07 01:37 -6.25011 108.28233 26211 ft 341 kts 315°
2026-05-07 01:38 -6.23345 108.26529 25988 ft 340 kts 315°
2026-05-07 01:38 -6.21692 108.24834 25925 ft 339 kts 315°
2026-05-07 01:38 -6.20063 108.23158 25919 ft 339 kts 315°
2026-05-07 01:38 -6.18420 108.21463 25905 ft 339 kts 315°
2026-05-07 01:39 -6.16765 108.19752 25809 ft 341 kts 315°
2026-05-07 01:39 -6.15106 108.18037 25391 ft 343 kts 315°
2026-05-07 01:39 -6.13438 108.16312 25066 ft 342 kts 315°
2026-05-07 01:39 -6.11791 108.14612 24829 ft 337 kts 315°
2026-05-07 01:40 -6.10158 108.12931 24615 ft 334 kts 315°
2026-05-07 01:40 -6.08552 108.11281 24407 ft 333 kts 315°
2026-05-07 01:40 -6.06931 108.09616 24183 ft 332 kts 315°
2026-05-07 01:40 -6.05319 108.07960 23963 ft 331 kts 315°
2026-05-07 01:41 -6.03710 108.06306 23753 ft 330 kts 315°
2026-05-07 01:41 -6.02100 108.04653 23536 ft 329 kts 315°
2026-05-07 01:41 -6.00514 108.03023 23286 ft 328 kts 315°
2026-05-07 01:41 -5.98921 108.01387 23089 ft 326 kts 315°
2026-05-07 01:42 -5.97362 107.99725 22929 ft 326 kts 308°
2026-05-07 01:42 -5.96298 107.97714 22540 ft 330 kts 282°
2026-05-07 01:42 -5.96063 107.95420 22181 ft 330 kts 270°
2026-05-07 01:42 -5.96071 107.93152 21811 ft 329 kts 269°
2026-05-07 01:43 -5.96107 107.90861 21526 ft 326 kts 269°
2026-05-07 01:43 -5.96135 107.88573 21205 ft 324 kts 269°
2026-05-07 01:43 -5.96152 107.86320 21007 ft 320 kts 269°
2026-05-07 01:43 -5.96161 107.84091 20685 ft 319 kts 269°
2026-05-07 01:44 -5.96167 107.81846 20263 ft 322 kts 270°
2026-05-07 01:44 -5.96169 107.79586 19853 ft 324 kts 270°
2026-05-07 01:44 -5.96171 107.77331 19451 ft 326 kts 270°
2026-05-07 01:44 -5.96172 107.75041 19048 ft 328 kts 270°
2026-05-07 01:45 -5.96172 107.72750 18649 ft 329 kts 270°
2026-05-07 01:45 -5.96172 107.70469 18264 ft 330 kts 270°
2026-05-07 01:45 -5.96171 107.68169 17904 ft 327 kts 270°
2026-05-07 01:45 -5.96171 107.65899 17738 ft 319 kts 270°
2026-05-07 01:46 -5.96171 107.63724 17589 ft 310 kts 270°
2026-05-07 01:46 -5.96171 107.61582 17422 ft 304 kts 270°
2026-05-07 01:46 -5.96171 107.59472 17189 ft 300 kts 270°
2026-05-07 01:46 -5.96172 107.57381 16915 ft 298 kts 270°
2026-05-07 01:47 -5.96172 107.55319 16647 ft 297 kts 270°
2026-05-07 01:47 -5.96172 107.53227 16137 ft 304 kts 270°
2026-05-07 01:47 -5.96173 107.51065 15541 ft 313 kts 270°
2026-05-07 01:47 -5.96173 107.48845 14957 ft 321 kts 270°
2026-05-07 01:48 -5.96173 107.46586 14380 ft 326 kts 270°
2026-05-07 01:48 -5.96173 107.44288 13822 ft 330 kts 270°
2026-05-07 01:48 -5.96173 107.41973 13279 ft 331 kts 270°
2026-05-07 01:48 -5.96173 107.39663 12804 ft 329 kts 270°
2026-05-07 01:49 -5.96173 107.37398 12357 ft 327 kts 270°
2026-05-07 01:49 -5.96172 107.35125 11932 ft 323 kts 270°
2026-05-07 01:49 -5.96172 107.32874 11520 ft 320 kts 270°
2026-05-07 01:49 -5.96170 107.30647 11122 ft 318 kts 270°
2026-05-07 01:50 -5.96167 107.28456 10925 ft 308 kts 270°
2026-05-07 01:50 -5.96163 107.26337 10788 ft 297 kts 270°
2026-05-07 01:50 -5.96160 107.24290 10648 ft 288 kts 270°
2026-05-07 01:50 -5.96157 107.22312 10512 ft 279 kts 270°
2026-05-07 01:51 -5.96153 107.20402 10390 ft 272 kts 270°
2026-05-07 01:51 -5.96150 107.18510 10167 ft 269 kts 270°
2026-05-07 01:51 -5.96147 107.16629 9917 ft 269 kts 270°
2026-05-07 01:51 -5.96143 107.14752 9685 ft 267 kts 270°
2026-05-07 01:52 -5.96140 107.12888 9420 ft 266 kts 270°
2026-05-07 01:52 -5.96147 107.11054 9160 ft 265 kts 267°
2026-05-07 01:52 -5.96498 107.09236 8895 ft 264 kts 251°
2026-05-07 01:52 -5.97121 107.07509 8663 ft 263 kts 249°
2026-05-07 01:53 -5.97735 107.05782 8414 ft 262 kts 250°
2026-05-07 01:53 -5.98372 107.04075 8196 ft 270 kts 248°
2026-05-07 01:53 -5.99107 107.02217 7804 ft 291 kts 248°
2026-05-07 01:53 -5.99859 107.00329 7225 ft 297 kts 248°
2026-05-07 01:54 -6.00638 106.98383 6652 ft 302 kts 248°
2026-05-07 01:54 -6.01430 106.96413 6060 ft 305 kts 248°
2026-05-07 01:54 -6.02233 106.94424 5453 ft 307 kts 247°
2026-05-07 01:54 -6.03041 106.92427 4854 ft 308 kts 247°
2026-05-07 01:55 -6.03780 106.90598 4485 ft 303 kts 247°
2026-05-07 01:55 -6.04561 106.88645 4169 ft 294 kts 247°
2026-05-07 01:55 -6.05307 106.86765 3890 ft 281 kts 247°
2026-05-07 01:55 -6.06005 106.85018 3576 ft 270 kts 247°
2026-05-07 01:56 -6.06700 106.83280 3240 ft 265 kts 247°
2026-05-07 01:56 -6.07384 106.81568 2888 ft 262 kts 246°
2026-05-07 01:56 -6.08061 106.79871 2557 ft 255 kts 247°
2026-05-07 01:56 -6.08707 106.78254 2233 ft 246 kts 247°
2026-05-07 01:57 -6.09330 106.76695 1921 ft 238 kts 247°
2026-05-07 01:57 -6.09928 106.75197 1618 ft 226 kts 247°
2026-05-07 01:57 -6.10498 106.73770 1344 ft 211 kts 246°
2026-05-07 01:57 -6.11010 106.72486 1074 ft 190 kts 246°
2026-05-07 01:58 -6.11489 106.71291 863 ft 181 kts 247°
2026-05-07 01:58 -6.11950 106.70131 650 ft 178 kts 246°
2026-05-07 01:58 -6.12380 106.68989 565 ft 175 kts 250°
2026-05-07 01:58 -6.12741 106.67911 215 ft 158 kts 246°
2026-05-07 01:59 -6.13163 106.66988 52 ft 129 kts 245°
2026-05-07 01:59 -6.13472 106.66371 47 ft 57 kts 251°
2026-05-07 01:59 -6.13522 106.66241 49 ft 7 kts 250°
2026-05-07 01:59 -6.13552 106.66158 49 ft 16 kts 249°
2026-05-07 02:00 -6.13586 106.66054 47 ft 16 kts 252°
2026-05-07 02:00 -6.13614 106.65948 46 ft 15 kts 258°
2026-05-07 02:00 -6.13622 106.65846 48 ft 15 kts 278°
2026-05-07 02:00 -6.13606 106.65742 48 ft 15 kts 278°
2026-05-07 02:01 -6.13540 106.65673 47 ft 15 kts 334°
2026-05-07 02:01 -6.13447 106.65670 47 ft 14 kts 37°
2026-05-07 02:01 -6.13408 106.65749 45 ft 12 kts 68°
2026-05-07 02:01 -6.13379 106.65825 45 ft 11 kts 69°
2026-05-07 02:02 -6.13352 106.65895 45 ft 10 kts 68°
2026-05-07 02:02 -6.13325 106.65959 44 ft 10 kts 68°
2026-05-07 02:02 -6.13301 106.66020 47 ft 9 kts 68°
2026-05-07 02:02 -6.13279 106.66079 45 ft 9 kts 69°
2026-05-07 02:03 -6.13256 106.66135 47 ft 8 kts 68°
2026-05-07 02:03 -6.13234 106.66188 45 ft 8 kts 68°
2026-05-07 02:03 -6.13204 106.66233 47 ft 8 kts 35°
2026-05-07 02:03 -6.13142 106.66231 47 ft 11 kts 341°
2026-05-07 02:04 -6.13065 106.66198 47 ft 13 kts 340°
2026-05-07 02:04 -6.12982 106.66163 47 ft 13 kts 336°
2026-05-07 02:04 -6.12895 106.66129 46 ft 14 kts 337°
2026-05-07 02:04 -6.12804 106.66085 47 ft 14 kts 330°
2026-05-07 02:05 -6.12741 106.66036 47 ft 11 kts 313°
2026-05-07 02:05 -6.12690 106.65975 47 ft 12 kts 310°
2026-05-07 02:05 -6.12701 106.65915 47 ft 10 kts 224°
2026-05-07 02:05 -6.12711 106.65907 47 ft 0 kts 221°
2026-05-07 02:06 -6.12713 106.65905 47 ft 1 kts 219°
2026-05-07 02:06 -6.12720 106.65896 47 ft 1 kts 231°
2026-05-07 02:06 -6.12725 106.65892 47 ft 2 kts 222°
2026-05-07 02:07 -6.12730 106.65890 47 ft 0 kts 203°
2026-05-07 02:07 -6.12738 106.65890 45 ft 2 kts 180°
2026-05-07 02:07 -6.12749 106.65891 46 ft 0 kts 178°
2026-05-07 02:22 -7.38334 112.77818 9 ft 0 kts 190°